Hourly Data Report for May 19, 2016

All times are specified in Local Standard Time (LST). Add 1 hour to adjust for Daylight Saving Time where and when it is observed.

LA RONGE RCS
SASKATCHEWAN

55°08'47.020" N
105°16'13.030" W
378.60 m
4064149
71586
XOX

Download Data

Hourly Data (May 2016)
Hourly Data Report for May 19, 2016
TIME Temp Definition
°C
Dew Point Definition
°C
Rel Hum Definition
%
Wind Dir Definition
10's deg

Wind Spd Definition
km/h
Visibility Definition
km
Stn Press Definition
kPa
Hmdx Definition


Wind Chill Definition


Weather Definition


00:00 11.3 5.1 66 19 1   96.18     LegendNANA
01:00 10.4 4.1 65 18 5   96.17     LegendNANA
02:00 8.2 4.5 78 33 1   96.16     LegendNANA
03:00 7.5 4.6 82   0   96.18     LegendNANA
04:00 6.8 3.9 82 35 2   96.18     LegendNANA
05:00 6.1 4.0 87 7 2   96.18     LegendNANA
06:00 7.7 4.5 80   0   96.18     LegendNANA
07:00 11.8 7.0 72   0   96.20     LegendNANA
08:00 14.8 7.3 61 18 4   96.22     LegendNANA
09:00 18.0 7.5 50 18 4   96.23     LegendNANA
10:00 19.2 6.7 44 15 9   96.26     LegendNANA
11:00 22.0 6.4 36 15 7   96.27     LegendNANA
12:00 22.9 5.0 31 6 10   96.27     LegendNANA
13:00 23.6 3.3 27 5 11   96.26     LegendNANA
14:00 24.4 3.5 26 6 11   96.27     LegendNANA
15:00 24.7 3.9 26 5 12   96.28     LegendNANA
16:00 22.6 6.7 36 6 23   96.34     LegendNANA
17:00 21.0 6.5 39 5 24   96.39     LegendNANA
18:00 19.9 6.1 41 5 20   96.46     LegendNANA
19:00 17.3 5.8 47 4 25   96.53     LegendNANA
20:00 14.5 5.0 53 4 28   96.62     LegendNANA
21:00 12.8 4.6 58 4 28   96.69     LegendNANA
22:00 11.3 4.1 61 4 23   96.80     LegendNANA
23:00 9.8 3.7 66 5 18   96.88     LegendNANA

Notes on Data Quality.

Legend

  • E = Estimated
  • M = Missing
  • NA = Not Available
Date modified: